SCP
0 0 0 0 0 0 0 0 0 0 0 0 0 0 0 0 0 0 0 0 0 0 0 0 0 0 0 0 0 0 0 0 0 0 0 0 0 0 0 0 0 0 0 0
0 0 0 0 0 0 0 0 0 0 0 0 0 0 0 0 0 0 0 0 0 0 0 0 0 0 0 0 0 0 0 0 0 0 0 0 0 0 0 0 0 0 0 0
0 0 0 0 0 0 0 0 0 0 0 0 0 0 0 0 0 0 0 0 0 0 0 0 0 0 0 0 0 0 0 0 0 0 0 0 0 0 0 0 0 0 0 0
0 0 0 0 0 0 0 0 0 0 0 0 0 0 0 0 0 0 0 0 0 0 0 0 0 0 0 0 0 0 0 0 0 0 0 0 0 0 0 0 0 0 0 0
0 0 0 0 0 0 0 0 0 0 0 0 0 0 0 0 0 0 0 0 0 0 0 0 0 0 0 0 0 0 0 0 0 0 0 0 0 0 0 0 0 0 0 0
0 0 0 0 0 0 0 0 0 0 0 0 0 0 0 0 0 0 0 0 0 0 0 0 0 0 0 0 0 0 0 0 0 0 0 0 0 0 0 0 0 0 0 0
0 0 0 0 0 0 0 0 0 0 0 0 0 0 0 0 0 0 0 0 0 0 0 0 0 0 0 0 0 0 0 0 0 0 0 0 0 0 0 0 0 0 0 0
0 0 0 0 0 0 0 0 0 0 0 0 0 0 0 0 0 0 0 0 0 0 0 0 0 0 0 0 0 0 0 0 0 0 0 0 0 0 0 0 0 0 0 0
0 0 0 0 0 0 0 0 0 0 0 0 0 0 0 0 0 0 0 0 0 0 0 0 0 0 0 0 0 0 0 0 0 0 0 0 0 0 0 0 0 0 0 0
0 0 0 0 0 0 0 0 0 0 0 0 0 0 0 0 0 0 0 0 0 0 0 0 0 0 0 0 0 0 0 0 0 0 0 0 0 0 0 0 0 0 0 0
0 0 0 0 0 0 0 0 0 0 0 0 0 0 0 0 0 0 0 0 0 0 0 0 0 0 0 0 0 0 0 0 0 0 0 0 0 0 0 0 0 0 0 0
0 0 0 0 0 0 0 0 0 0 0 0 0 0 0 0 0 0 0 0 0 0 0 0 0 0 0 0 0 0 0 0 0 0 0 0 0 0 0 0 0 0 0 0
0 0 0 0 0 0 0 0 0 0 0 0 0 0 0 0 0 0 0 0 0 0 0 0 0 0 0 0 0 0 0 0 0 0 0 0 0 0 0 0 0 0 0 0
0 0 0 0 0 0 0 0 0 0 0 0 0 0 0 0 0 0 0 0 0 0 0 0 0 0 0 0 0 0 0 0 0 0 0 0 0 0 0 0 0 0 0 0
0 0 0 0 0 0 0 0 0 0 0 0 0 0 0 0 0 0 0 0 0 0 0 0 0 0 0 0 0 0 0 0 0 0 0 0 0 0 0 0 0 0 0 0
0 0 0 0 0 0 0 0 0 0 0 0 0 0 0 0 0 0 0 0 0 0 0 0 0 0 0 0 0 0 0 0 0 0 0 0 0 0 0 0 0 0 0 0
0 0 0 0 0 0 0 0 0 0 0 0 0 0 0 0 0 0 0 0 0 0 0 0 0 0 0 0 0 0 0 0 0 0 0 0 0 0 0 0 0 0 0 0
0 0 0 0 0 0 0 0 0 0 0 0 0 0 0 0 0 0 0 0 0 0 0 0 0 0 0 0 0 0 0 0 0 0 0 0 0 0 0 0 0 0 0 0
0 0 0 0 0 0 0 0 0 0 0 0 0 0 0 0 0 0 0 0 0 0 0 0 0 0 0 0 0 0 0 0 0 0 0 0 0 0 0 0 0 0 0 0
0 0 0 0 0 0 0 0 0 0 0 0 0 0 0 0 0 0 0 0 0 0 0 0 0 0 0 0 0 0 0 0 0 0 0 0 0 0 0 0 0 0 0 0
0 0 0 0 0 0 0 0 0 0 0 0 0 0 0 0 0 0 0 0 0 0 0 0 0 0 0 0 0 0 0 0 0 0 0 0 0 0 0 0 0 0 0 0
0 0 0 0 0 0 0 0 0 0 0 0 0 0 0 0 0 0 0 0 0 0 0 0 0 0 0 0 0 0 0 0 0 0 0 0 0 0 0 0 0 0 0 0
0 0 0 0 0 0 0 0 0 0 0 0 0 0 0 0 0 0 0 0 0 0 0 0 0 0 0 0 0 0 0 0 0 0 0 0 0 0 0 0 0 0 0 0
0 0 0 0 0 0 0 0 0 0 0 0 0 0 0 0 0 0 0 0 0 0 0 0 0 0 0 0 0 0 0 0 0 0 0 0 0 0 0 0 0 0 0 0
0 0 0 0 0 0 0 0 0 0 0 0 0 0 0 0 0 0 0 0 0 0 0 0 0 0 0 0 0 0 0 0 0 0 0 0 0 0 0 0 0 0 0 0
0 0 0 0 0 0 0 0 0 0 0 0 0 0 0 0 0 0 0 0 0 0 0 0 0 0 0 0 0 0 0 0 0 0 0 0 0 0 0 0 0 0 0 0
Wind_Speed
9 9 13 14 14 9 8 10 10 6 5 6 7 7 6 8 7 7 6 6 7 8 7 7 8 8 8 8 9 11 12 11 9 7 7 6 5 4 4 4 6 6 6 6
8 13 13 10 12 11 8 10 8 5 2 2 5 8 7 7 9 9 8 8 8 7 6 6 6 7 7 8 8 9 11 12 11 8 7 5 5 4 5 4 5 6 6 6
13 7 10 10 9 10 8 8 7 7 3 1 1 6 11 9 9 7 6 5 4 6 7 7 6 5 5 6 7 7 9 10 11 10 6 4 4 3 4 5 5 6 6 6
11 4 9 9 9 8 7 2 4 9 7 5 6 5 7 10 9 8 7 6 5 4 5 6 5 4 4 4 3 5 6 7 9 10 8 7 6 5 5 4 4 5 6 6
7 7 8 10 9 7 3 4 6 6 4 2 4 4 6 6 7 9 8 7 6 5 5 5 4 4 3 2 2 2 3 5 6 9 9 8 6 4 3 2 3 3 3 3
3 2 3 4 4 6 8 7 6 2 2 3 8 6 6 5 7 7 7 7 7 6 6 6 5 4 3 3 2 2 3 3 4 6 7 7 6 4 3 2 2 1 1 1
4 2 1 3 8 5 7 8 4 3 3 6 4 6 7 2 3 7 9 8 7 6 6 6 5 4 4 4 3 4 5 5 5 6 5 5 5 4 3 2 2 2 2 2
9 8 8 6 6 9 9 9 8 8 7 4 2 7 7 2 4 6 8 9 7 6 6 6 6 5 5 5 5 5 6 7 7 7 6 6 6 4 4 4 4 3 2 2
12 6 7 3 1 7 8 7 4 6 3 4 6 7 4 3 4 6 7 8 8 7 7 7 7 6 6 6 6 7 8 8 8 8 8 8 7 7 6 6 5 4 3 3
5 8 5 2 1 2 3 8 5 6 7 5 5 6 6 8 9 9 10 9 9 8 8 7 6 6 6 6 7 8 8 9 9 8 8 7 8 7 7 6 6 6 5 5
2 9 5 3 9 9 5 7 7 6 6 7 5 7 3 8 11 13 11 10 10 9 8 7 7 6 6 6 7 7 8 8 8 8 8 8 7 7 7 7 7 6 5 5
4 7 6 3 1 2 3 7 8 8 6 5 4 7 2 2 6 10 11 10 10 9 8 8 7 7 6 7 7 7 7 8 8 8 8 8 8 8 7 7 6 6 6 5
7 8 8 3 1 2 3 5 7 4 5 5 5 8 0 1 4 8 10 11 10 9 9 8 7 7 7 7 7 7 7 7 7 7 8 8 7 7 7 6 6 6 6 6
6 5 8 13 10 10 7 8 8 7 6 7 9 7 4 5 7 9 11 11 10 9 9 8 7 7 7 6 7 7 6 6 7 7 8 8 7 7 6 6 6 6 5 5
6 6 5 3 3 11 9 12 12 11 11 10 10 10 9 11 12 12 12 12 12 11 11 10 9 8 7 7 7 7 6 6 7 8 8 7 6 6 6 5 5 5 5 5
5 6 6 2 1 3 6 12 16 16 14 13 9 8 4 9 9 11 13 14 14 13 12 11 10 10 9 9 8 8 7 6 7 8 8 6 5 5 5 5 4 4 4 4
7 7 7 5 3 4 6 13 17 14 13 12 17 14 4 6 12 16 16 17 16 15 14 14 12 11 10 9 8 8 8 7 8 7 6 5 5 5 5 4 4 5 4 4
9 8 5 6 6 9 13 7 10 13 14 14 10 4 8 11 12 13 14 18 16 16 15 14 12 11 9 8 8 9 8 7 7 7 6 5 5 4 4 4 4 4 4 4
5 8 6 6 6 8 7 6 11 12 14 13 14 10 6 4 4 4 8 13 14 15 13 12 11 11 10 10 9 10 8 7 7 6 5 4 4 4 4 4 4 3 4 4
1 5 6 6 7 12 11 7 6 6 12 9 10 9 8 10 8 9 9 10 11 12 12 12 12 11 11 9 9 10 9 7 6 5 4 3 3 3 3 3 3 3 4 5
6 5 7 7 7 10 4 4 9 11 12 3 7 8 11 14 10 5 10 9 11 12 13 13 13 11 10 9 9 10 8 7 6 5 4 3 3 2 2 2 3 4 4 5
12 9 9 7 8 11 5 7 10 6 2 1 1 3 6 4 5 8 10 12 14 14 13 13 13 11 8 7 9 10 8 6 5 4 3 2 1 1 1 2 3 3 4 5
8 9 7 9 8 2 6 5 2 3 3 2 1 1 6 6 6 7 9 11 11 13 12 11 13 12 7 5 7 9 7 6 5 4 3 1 0 1 1 2 3 3 3 3
2 2 3 3 3 2 2 2 2 2 2 2 2 4 6 7 9 9 10 10 10 10 10 10 12 12 8 5 6 7 7 5 4 4 2 1 1 1 1 2 2 2 3 4
5 5 4 3 1 0 2 3 2 3 3 3 3 3 6 10 10 9 9 10 10 9 8 9 10 11 10 8 7 7 6 5 4 3 2 1 1 1 2 2 2 4 4 5
4 6 7 5 5 5 2 2 5 5 4 4 5 4 4 7 9 10 9 9 9 10 9 9 8 9 9 8 7 6 5 4 4 3 2 1 1 1 2 3 4 7 8 11
Wind_Direction
186 201 206 205 215 226 198 204 204 165 144 171 205 231 213 182 184 208 217 204 191 195 184 170 168 168 170 175 175 176 176 179 180 182 184 188 193 189 189 189 190 193 193 191
182 215 211 208 212 233 238 212 204 103 107 177 218 241 238 210 197 197 202 205 197 182 164 156 162 166 175 182 185 181 179 179 182 187 187 185 183 190 195 194 199 201 198 193
197 199 200 208 201 208 234 220 196 135 113 279 275 262 231 224 210 196 196 202 190 172 166 161 163 171 176 188 192 192 185 180 180 178 175 171 181 181 188 196 200 205 202 198
212 181 178 188 195 191 215 226 131 127 139 187 185 254 235 198 193 195 196 196 195 171 146 141 152 161 166 186 188 192 188 180 175 172 175 176 184 193 195 190 194 197 198 197
190 166 172 188 194 186 145 106 110 142 165 142 194 232 269 162 184 201 193 184 167 144 129 116 108 111 105 116 157 178 175 175 169 168 174 182 192 196 185 176 171 175 173 178
99 146 171 177 156 142 123 90 80 93 120 228 202 197 257 202 194 176 158 143 131 118 110 105 96 95 92 89 97 119 131 138 141 148 160 175 181 177 164 152 147 143 119 113
132 151 55 103 106 130 160 134 120 155 198 237 187 195 240 183 110 144 148 139 129 133 135 132 129 120 114 113 114 113 114 106 103 110 118 135 143 141 142 136 122 107 86 63
159 184 191 189 160 166 198 171 155 171 194 213 309 225 245 136 95 96 119 128 133 133 123 118 113 107 101 98 100 104 106 100 95 96 94 93 100 102 93 87 88 82 75 58
175 174 149 160 23 156 175 210 162 131 123 162 225 248 249 160 155 154 149 147 148 137 125 116 108 102 97 91 90 97 99 93 89 89 88 84 83 86 85 79 75 72 62 48
160 136 142 115 100 340 201 152 127 140 155 206 227 216 221 200 201 183 172 165 151 139 131 121 109 100 92 88 85 83 88 91 88 86 85 85 80 79 79 75 69 63 54 46
104 121 128 153 193 179 163 158 172 161 176 173 212 244 215 191 185 178 174 162 152 146 137 126 116 107 99 91 89 88 87 88 87 87 85 82 77 74 73 69 61 54 49 42
142 119 135 164 88 353 219 182 175 169 203 188 184 255 324 36 150 158 157 150 143 137 130 125 122 118 108 99 93 90 87 86 88 89 86 82 77 74 71 64 54 47 44 37
137 124 113 103 178 248 247 218 208 163 135 163 182 252 329 90 129 145 147 145 142 138 134 132 130 126 118 111 103 96 90 88 88 89 88 82 75 71 67 59 49 41 35 30
135 151 166 181 189 171 192 202 196 171 172 195 211 218 201 187 170 162 156 153 150 151 150 146 140 131 123 116 110 104 96 91 91 88 86 79 71 66 61 54 46 37 29 27
139 183 207 203 157 160 178 191 193 203 203 196 221 221 209 194 187 175 163 158 159 163 164 159 151 142 133 124 116 110 103 95 95 92 86 79 71 65 60 52 42 34 29 23
174 180 175 203 6 164 188 193 194 210 222 232 244 243 204 172 158 159 166 170 175 177 173 164 156 150 147 141 133 123 110 98 95 93 86 80 75 69 58 46 36 31 23 12
163 149 155 189 121 68 239 207 197 205 214 214 233 236 148 149 170 177 179 183 187 182 175 170 165 158 150 144 136 129 120 108 101 99 93 83 77 68 50 36 32 23 9 359
153 145 142 130 125 209 234 201 193 208 221 216 226 214 180 187 190 188 183 184 186 180 175 170 161 151 141 131 124 118 115 112 108 102 93 79 71 63 43 33 24 7 354 346
143 140 137 150 185 243 255 207 194 202 234 216 222 223 187 140 136 217 196 184 182 176 167 157 149 141 135 133 130 124 118 114 108 101 92 78 68 57 37 22 3 348 339 331
124 141 145 165 185 221 235 189 164 163 248 224 208 210 174 147 191 223 185 170 160 150 144 140 136 132 134 133 132 128 125 119 111 105 96 80 66 52 26 357 338 332 325 315
163 170 185 186 210 246 225 166 134 176 235 204 195 198 178 189 211 172 145 146 141 136 135 135 135 135 136 135 134 129 125 119 113 104 95 77 54 26 352 335 328 321 318 315
176 177 190 182 207 237 162 149 176 200 153 164 206 197 174 164 112 120 132 134 134 132 134 135 133 128 124 130 134 130 126 118 109 102 94 77 39 352 346 333 322 319 315 312
190 188 182 193 213 190 167 173 143 116 136 145 155 122 131 127 129 128 129 132 132 134 134 131 131 125 116 115 131 133 128 122 116 110 103 99 35 327 321 323 322 321 318 310
202 123 150 197 220 152 154 92 97 92 119 137 143 142 138 139 141 136 135 135 134 133 134 133 135 136 134 121 108 118 123 121 122 117 107 85 40 2 354 325 304 301 302 302
170 160 166 213 214 99 249 214 169 126 111 117 118 134 146 143 148 148 147 146 144 138 136 143 149 148 145 139 126 121 121 125 121 116 107 78 38 353 328 305 280 284 256 258
177 170 174 203 190 176 197 186 158 153 158 155 141 134 144 155 155 151 153 151 149 149 147 149 149 146 145 143 135 127 122 126 128 123 114 89 25 336 315 311 306 303 299 297